Imperial, CA

2:02 AM PDT on April 25, 2018 (GMT -0700)
Imperial County

Weather History for KIPL - February, 2013

Change the Weather History Date:

Saturday, February 2, 2013

  Actual Average Record
Temperature  
Mean Temperature 64 °F -  
Max Temperature 79 °F 70 °F 85 °F (1954)
Min Temperature 48 °F 43 °F 28 °F (1949)
Degree Days  
Heating Degree Days 2    
Growing Degree Days 14 (Base 50)    
Moisture  
Dew Point 40 °F    
Average Humidity 44    
Maximum Humidity 74    
Minimum Humidity 18    
Precipitation  
Precipitation 0.00 in - - ()
Sea Level Pressure  
Sea Level Pressure 30.15 in    
Wind  
Wind Speed 2 mph (WNW)    
Max Wind Speed 6 mph    
Max Gust Speed -    
Visibility 10 miles    
Events      
Averages and records for this station are not official NWS values.
T = Trace of Precipitation, MM = Missing Value Source: NWS Daily Summary

Daily Weather History Graph

Daily Weather History Graph

Search for Another Location

Airport or City:

Astronomy

Feb. 02, 2013 Rise Set
Actual Time 6:36 AM PST 5:16 PM PST
Civil Twilight 6:10 AM PST 5:42 PM PST
Nautical Twilight 5:41 AM PST 6:11 PM PST
Astronomical Twilight 5:12 AM PST 6:40 PM PST
Moon No Moon Rise 10:14 AM PST (2/2)
Length of Visible Light 11h 31m
Length of Day
10h 39m
Waning Gibbous, 58% of the Moon is Illuminated
Feb 2
Waning Gibbous
Feb 3
Last Quarter
Feb 9
New
Feb 17
First Quarter
Feb 25
Full

Hourly Weather History & Observations

Time (PST) Temp. Dew Point Humidity Pressure Visibility Wind Dir Wind Speed Gust Speed Precip Events Conditions
12:53 AM 51.8 °F 42.8 °F 71% 30.18 in 10.0 mi WNW 3.5 mph - N/A   Clear
1:53 AM 53.1 °F 42.1 °F 66% 30.17 in 10.0 mi Calm Calm - N/A   Clear
4:53 AM 50.0 °F 41.0 °F 71% 30.17 in 10.0 mi West 3.5 mph - N/A   Clear
5:53 AM 48.9 °F 41.0 °F 74% 30.18 in 10.0 mi West 4.6 mph - N/A   Clear
6:53 AM 51.1 °F 39.9 °F 66% 30.19 in 10.0 mi Calm Calm - N/A   Clear
7:53 AM 53.1 °F 41.0 °F 64% 30.20 in 10.0 mi Calm Calm - N/A   Clear
8:53 AM 62.1 °F 45.0 °F 53% 30.22 in 10.0 mi West 3.5 mph - N/A   Clear
9:53 AM 66.9 °F 43.0 °F 42% 30.23 in 10.0 mi Calm Calm - N/A   Clear
10:53 AM 72.0 °F 37.9 °F 29% 30.21 in 10.0 mi NNW 5.8 mph - N/A   Clear
11:53 AM 75.0 °F 37.0 °F 25% 30.18 in 10.0 mi West 5.8 mph - N/A   Clear
12:53 PM 77.0 °F 34.0 °F 21% 30.14 in 10.0 mi NW 4.6 mph - N/A   Clear
1:53 PM 78.1 °F 30.9 °F 18% 30.12 in 10.0 mi NNW 4.6 mph - N/A   Clear
2:53 PM 79.0 °F 33.1 °F 19% 30.11 in 10.0 mi Calm Calm - N/A   Clear
3:53 PM 77.0 °F 34.0 °F 21% 30.10 in 10.0 mi Calm Calm - N/A   Clear
4:53 PM 75.0 °F 35.1 °F 23% 30.10 in 10.0 mi Calm Calm - N/A   Clear
5:53 PM 71.1 °F 37.9 °F 30% 30.10 in 10.0 mi Calm Calm - N/A   Clear
6:53 PM 70.0 °F 39.9 °F 33% 30.12 in 10.0 mi Calm Calm - N/A   Clear
7:53 PM 69.1 °F 41.0 °F 36% 30.12 in 10.0 mi NNE 3.5 mph - N/A   Clear
8:53 PM 66.0 °F 44.1 °F 45% 30.12 in 10.0 mi Calm Calm - N/A   Clear
9:53 PM 64.9 °F 43.0 °F 45% 30.11 in 10.0 mi Calm Calm - N/A   Overcast
10:53 PM 62.1 °F 46.9 °F 58% 30.11 in 10.0 mi West 3.5 mph - N/A   Scattered Clouds
11:53 PM 63.0 °F 46.0 °F 54% 30.10 in 10.0 mi Calm Calm - N/A   Scattered Clouds